Date,TemperatureHighF,TemperatureAvgF,TemperatureLowF,DewpointHighF,DewpointAvgF,DewpointLowF,HumidityHigh,HumidityAvg,HumidityLow,PressureMaxIn,PressureMinIn,WindSpeedMaxMPH,WindSpeedAvgMPH,GustSpeedMaxMPH,PrecipitationSumIn
2013-9-2,77.7,77.7,77.7,61.0,61.0,61.0,56,56,56,29.91,29.91,0,0,3,0.00
2013-9-3,88.4,78.9,57.3,63.0,58.3,56.0,94,52,36,30.04,29.95,1,0,5,0.00
2013-9-5,79.6,75.4,72.0,63.0,63.0,63.0,72,65,57,30.06,30.04,0,0,0,0.00
2013-9-6,91.9,76.2,66.4,67.0,63.6,61.0,86,67,42,30.06,29.91,2,0,7,0.00
2013-9-7,93.3,77.7,71.1,70.0,65.3,62.0,78,66,44,29.93,29.79,3,0,9,0.00
2013-9-8,86.6,81.0,76.3,70.0,68.0,66.0,71,65,57,29.82,29.80,3,1,6,0.00
2013-9-9,93.4,84.9,80.1,64.0,62.7,60.0,59,48,35,29.85,29.79,6,1,14,0.00
2013-9-10,95.0,80.4,71.8,67.0,64.8,63.0,77,61,38,29.98,29.86,4,0,12,0.00
2013-9-11,95.3,78.5,68.3,65.0,62.7,60.0,83,61,35,30.03,29.93,3,0,7,0.00
2013-9-12,86.0,77.7,69.2,71.0,63.8,48.0,86,65,41,30.07,29.96,3,0,10,0.00
2013-9-13,78.1,66.8,56.3,54.0,49.6,47.0,78,56,37,30.12,29.99,4,0,7,0.00
2013-9-14,80.7,66.9,52.2,55.0,50.3,47.0,82,57,37,30.06,29.89,4,0,7,0.00
2013-9-15,84.7,71.5,63.9,68.0,60.2,52.0,88,68,55,30.08,29.87,6,0,10,0.02
2013-9-16,63.9,60.2,58.5,61.0,58.0,57.0,95,92,88,30.20,30.07,2,0,10,0.19
2013-9-17,69.4,64.4,60.4,69.0,63.3,59.0,98,96,93,30.15,29.92,2,0,8,0.69
2013-9-18,89.0,76.8,65.8,73.0,69.0,65.0,98,79,56,29.92,29.74,9,2,16,0.00
2013-9-19,93.4,78.1,66.8,73.0,68.1,66.0,97,74,42,29.84,29.64,10,2,16,2.06
2013-9-20,68.9,62.4,53.1,66.0,54.8,50.0,97,78,52,29.98,29.82,4,0,9,0.00
2013-9-21,75.9,60.3,47.9,53.0,49.3,46.0,97,72,36,30.00,29.86,3,0,4,0.00
2013-9-22,80.1,63.6,51.7,55.0,50.8,49.0,92,66,37,29.95,29.81,4,0,6,0.00
2013-9-23,79.7,65.1,52.6,57.0,52.9,50.0,91,67,41,29.89,29.72,5,0,11,0.00
2013-9-24,70.1,64.8,59.7,60.0,57.5,55.0,92,77,64,29.79,29.71,6,0,10,0.00
2013-9-25,81.6,66.2,54.8,65.0,59.7,54.0,97,81,57,29.84,29.76,0,0,4,0.01
2013-9-26,86.3,71.7,59.2,65.0,60.8,58.0,95,71,44,29.86,29.78,6,0,10,0.00
2013-9-27,88.5,75.1,66.0,67.0,62.7,61.0,84,67,45,29.90,29.78,6,1,12,0.00
2013-9-28,72.3,63.9,53.7,66.0,58.9,53.0,97,85,68,30.02,29.74,5,1,9,0.75
2013-9-29,75.7,59.9,46.7,62.0,51.6,46.0,98,78,43,30.07,29.91,2,0,4,0.01
2013-9-30,79.2,63.4,48.4,62.0,55.7,47.0,97,78,54,29.91,29.77,6,1,9,0.00